Date String (YYYY-MM-DD hh:mm:ss) UTC,Instrument flags,Ambient pressure (hPa),Sample flow (lpm),Bypass flow (lpm),Sample temperature (°C),Ambient temperature (°C),ASC tube jacket temperature (°C),LED temperature (°C),Box temperature (°C),Sample RH (%),Span deviation,Mass concentration (μg/m³),Mass concentration (μg/m³),Mass concentration (μg/m³)
DateTimeUTC,F1_M11,P_M11,Q1_M11,Q2_M11,T1_M11,T2_M11,T3_M11,T4_M11,T5_M11,U1_M11,ZSPAN_M11,X2_M11,X0_M11,X1_M11
2021-11-18 16:00:00,,0833.8,5.00,0.00,23.3,22.5,00.0,32.2,25.1,09.5,0000.0,0004.91,0015.47,0003.66
2021-11-18 16:01:00,,0833.8,5.00,0.00,23.3,22.5,00.0,32.2,25.1,09.6,0000.0,0004.89,0015.04,0003.67
2021-11-18 16:02:00,,0833.8,5.01,0.00,23.3,22.5,00.0,32.3,25.1,09.7,0000.0,0004.91,0015.07,0003.68
2021-11-18 16:03:00,,0833.9,5.00,0.00,23.3,22.6,00.0,32.3,25.1,09.6,0000.0,0004.93,0015.45,0003.71
2021-11-18 16:04:00,,0833.8,5.00,0.00,23.3,22.6,00.0,32.3,25.1,09.7,0000.0,0004.89,0014.86,0003.72
2021-11-18 16:05:00,,0833.8,4.99,0.00,23.3,22.6,00.0,32.3,25.2,09.6,0000.0,0004.93,0014.49,0003.72
2021-11-18 16:06:00,,0833.8,5.01,0.00,23.4,22.6,00.0,32.3,25.2,09.6,0000.0,0004.91,0014.50,0003.72
2021-11-18 16:07:00,,0833.9,4.99,0.00,23.4,22.6,00.0,32.3,25.2,09.7,0000.0,0004.91,0014.42,0003.72
2021-11-18 16:08:00,,0833.9,5.01,0.00,23.4,22.6,00.0,32.3,25.2,09.8,0000.0,0004.93,0014.16,0003.72
2021-11-18 16:09:00,,0833.9,5.00,0.00,23.4,22.6,00.0,32.3,25.2,09.9,0000.0,0004.92,0014.04,0003.71
2021-11-18 16:10:00,,0833.8,5.00,0.00,23.4,22.6,00.0,32.3,25.2,09.8,0000.0,0004.89,0013.79,0003.69
2021-11-18 16:11:00,,0833.7,4.99,0.00,23.4,22.6,00.0,32.3,25.2,09.7,0000.0,0004.86,0013.60,0003.67
2021-11-18 16:12:00,,0833.7,5.01,0.00,23.4,22.6,00.0,32.3,25.2,09.8,0000.0,0004.84,0013.15,0003.67
2021-11-18 16:13:00,,0833.7,5.00,0.00,23.4,22.6,00.0,32.3,25.2,09.6,0000.0,0004.83,0012.63,0003.65
2021-11-18 16:14:00,,0833.7,4.99,0.00,23.4,22.6,00.0,32.3,25.2,09.6,0000.0,0004.77,0012.07,0003.61
2021-11-18 16:15:00,,0833.7,5.01,0.00,23.4,22.5,00.0,32.4,25.2,09.5,0000.0,0004.78,0012.01,0003.57
2021-11-18 16:16:00,,0833.6,5.00,0.00,23.4,22.6,00.0,32.4,25.2,09.2,0000.0,0004.76,0012.04,0003.54
2021-11-18 16:17:00,,0833.6,4.99,0.00,23.4,22.6,00.0,32.4,25.1,09.2,0000.0,0004.67,0011.51,0003.51
2021-11-18 16:18:00,,0833.6,4.99,0.00,23.4,22.6,00.0,32.4,25.2,09.2,0000.0,0004.60,0010.83,0003.48
2021-11-18 16:19:00,,0833.6,5.01,0.00,23.4,22.6,00.0,32.4,25.2,09.7,0000.0,0004.54,0010.87,0003.46
2021-11-18 16:20:00,,0833.6,4.99,0.00,23.4,22.7,00.0,32.4,25.2,09.3,0000.0,0004.52,0011.23,0003.44
2021-11-18 16:21:00,,0833.6,5.01,0.00,23.4,22.7,00.0,32.4,25.2,09.3,0000.0,0004.50,0011.07,0003.42
2021-11-18 16:22:00,,0833.6,5.00,0.00,23.4,22.7,00.0,32.4,25.3,09.4,0000.0,0004.48,0011.12,0003.40
2021-11-18 16:23:00,,0833.6,5.00,0.00,23.5,22.7,00.0,32.4,25.3,09.4,0000.0,0004.45,0011.35,0003.38
2021-11-18 16:24:00,,0833.6,5.00,0.00,23.5,22.7,00.0,32.4,25.3,09.2,0000.0,0004.44,0012.18,0003.36
2021-11-18 16:25:00,,0833.6,5.01,0.00,23.5,22.7,00.0,32.4,25.3,09.3,0000.0,0004.47,0012.08,0003.34
2021-11-18 16:26:00,,0833.6,4.99,0.00,23.5,22.7,00.0,32.4,25.3,09.2,0000.0,0004.42,0012.11,0003.33
2021-11-18 16:27:00,,0833.6,5.00,0.00,23.5,22.7,00.0,32.4,25.4,09.1,0000.0,0004.39,0011.78,0003.33
2021-11-18 16:28:00,,0833.5,5.01,0.00,23.5,22.7,00.0,32.5,25.3,09.2,0000.0,0004.44,0011.93,0003.33
2021-11-18 16:29:00,,0833.5,4.98,0.00,23.5,22.7,00.0,32.5,25.4,09.1,0000.0,0004.44,0013.01,0003.33
2021-11-18 16:30:00,,0833.6,4.99,0.00,23.5,22.8,00.0,32.5,25.4,09.0,0000.0,0004.40,0013.08,0003.32
2021-11-18 16:31:00,,0833.6,5.01,0.00,23.5,22.8,00.0,32.5,25.4,08.9,0000.0,0004.41,0012.78,0003.33
2021-11-18 16:32:00,,0833.6,4.99,0.00,23.6,22.8,00.0,32.5,25.4,09.0,0000.0,0004.42,0013.67,0003.33
2021-11-18 16:33:00,,0833.5,5.02,0.00,23.6,22.8,00.0,32.5,25.4,09.3,0000.0,0004.40,0014.04,0003.33
2021-11-18 16:34:00,,0833.5,4.99,0.00,23.6,22.8,00.0,32.5,25.4,09.4,0000.0,0004.41,0013.80,0003.35
2021-11-18 16:35:00,,0833.5,5.01,0.00,23.6,22.8,00.0,32.5,25.4,09.4,0000.0,0004.44,0013.39,0003.37
2021-11-18 16:36:00,,0833.5,5.00,0.00,23.6,22.8,00.0,32.5,25.4,09.4,0000.0,0004.45,0013.30,0003.40
2021-11-18 16:37:00,,0833.5,5.00,0.00,23.6,22.8,00.0,32.5,25.4,09.5,0000.0,0004.52,0013.02,0003.44
2021-11-18 16:38:00,,0833.4,5.01,0.00,23.6,22.8,00.0,32.5,25.4,09.5,0000.0,0004.58,0013.42,0003.46
2021-11-18 16:39:00,,0833.5,4.99,0.00,23.6,22.8,00.0,32.5,25.5,09.5,0000.0,0004.54,0013.47,0003.47
2021-11-18 16:40:00,,0833.4,5.00,0.00,23.6,22.8,00.0,32.6,25.5,09.4,0000.0,0004.52,0012.87,0003.49
2021-11-18 16:41:00,,0833.4,5.01,0.00,23.6,22.9,00.0,32.6,25.5,09.4,0000.0,0004.58,0013.12,0003.51
2021-11-18 16:42:00,,0833.4,5.00,0.00,23.7,22.9,00.0,32.6,25.5,09.5,0000.0,0004.58,0013.84,0003.53
2021-11-18 16:43:00,,0833.5,4.99,0.00,23.7,22.9,00.0,32.6,25.5,09.5,0000.0,0004.67,0013.43,0003.56
2021-11-18 16:44:00,,0833.4,5.00,0.00,23.7,22.9,00.0,32.6,25.5,09.4,0000.0,0004.73,0012.88,0003.59
2021-11-18 16:45:00,,0833.4,4.99,0.00,23.7,22.9,00.0,32.6,25.5,09.6,0000.0,0004.79,0013.31,0003.60
2021-11-18 16:46:00,,0833.4,5.00,0.00,23.7,22.9,00.0,32.6,25.5,09.6,0000.0,0004.82,0013.46,0003.61
2021-11-18 16:47:00,,0833.3,5.01,0.00,23.7,22.9,00.0,32.6,25.5,09.5,0000.0,0004.82,0013.28,0003.63
2021-11-18 16:48:00,,0833.3,4.98,0.00,23.7,22.9,00.0,32.6,25.5,09.6,0000.0,0004.82,0013.22,0003.64
2021-11-18 16:49:00,,0833.3,5.01,0.00,23.7,22.9,00.0,32.6,25.5,09.5,0000.0,0004.77,0013.40,0003.65
2021-11-18 16:50:00,,0833.4,4.99,0.00,23.7,22.9,00.0,32.7,25.5,09.5,0000.0,0004.83,0013.97,0003.66
2021-11-18 16:51:00,,0833.4,5.00,0.00,23.7,22.9,00.0,32.7,25.5,09.6,0000.0,0004.88,0014.06,0003.68
2021-11-18 16:52:00,,0833.4,5.01,0.00,23.7,22.9,00.0,32.7,25.5,09.5,0000.0,0004.94,0013.54,0003.71
2021-11-18 16:53:00,,0833.4,5.00,0.00,23.8,22.9,00.0,32.7,25.6,09.5,0000.0,0004.96,0012.69,0003.72
2021-11-18 16:54:00,,0833.3,4.99,0.00,23.8,22.9,00.0,32.7,25.6,09.5,0000.0,0004.91,0012.58,0003.70
2021-11-18 16:55:00,,0833.3,4.99,0.00,23.8,23.0,00.0,32.7,25.5,09.4,0000.0,0004.89,0013.06,0003.70
2021-11-18 16:56:00,,0833.3,5.01,0.00,23.8,23.0,00.0,32.7,25.6,09.5,0000.0,0004.94,0012.86,0003.70
2021-11-18 16:57:00,,0833.3,5.00,0.00,23.8,23.0,00.0,32.7,25.6,09.5,0000.0,0004.93,0012.76,0003.68
2021-11-18 16:58:00,,0833.3,4.99,0.00,23.8,23.0,00.0,32.7,25.6,09.5,0000.0,0005.00,0013.78,0003.67
2021-11-18 16:59:00,,0833.3,5.01,0.00,23.8,23.0,00.0,32.7,25.6,09.5,0000.0,0005.03,0014.64,0003.67
